Powrót do katalogu

FENGYUN 1C DEB

AktywnyPO
NORAD 32326·DEBRIS·🇨🇳 China

Wystrzelony May 10, 1999 z Taiyuan Satellite Launch Center

Loading…

Następne Przeloty (najbliższe 24 godziny)

TLE

Starzejące sięSource: Space-Track

Epoka: Sep 5, 2026, 04:32 UTC

1 32326U 99025CXT 26248.18896348  .00000313  00000-0  23567-3 0  9993
2 32326  98.4853 151.8874 0385283 147.3430 215.2188 13.69665260668292

Śledź FENGYUN 1C DEB w czasie rzeczywistym z AllMySat

Download on the App Store